Regional Weather Roundup
Issued by NWS Kansas City/Pleasant Hill, MO

Home | Current Version | Previous Version | Graphics & Text | Print | Product List | Glossary Off
Versions: 1 2 3 4 5 6 7 8 9 10 11 12 13 14 15 16 17 18 19 20 21 22 23 24 25 26 27 28 29 30 31 32 33 34 35 36 37 38 39 40 41 42 43 44 45 46 47 48 49 50

000
ASUS43 KEAX 200511
RWREAX

WEATHER ROUNDUP FOR EASTERN KANSAS AND NORTHWEST MISSOURI
NATIONAL WEATHER SERVICE KANSAS CITY/PLEASANT HILL MO
1200 AM CDT MON OCT 20 2014

KSZ040-057-103>105-MOZ028-029-037-043-200600-
...KANSAS CITY METROPOLITAN AREA...

CITY           SKY/WX    TMP DP  RH WIND       PRES   REMARKS
K.C. INTL      NOT AVBL
K.C. DOWNTOWN  NOT AVBL
LEES SUMMIT    NOT AVBL
OLATHE - IXD   NOT AVBL
OLATHE - OJC   NOT AVBL

$$

MOZ001>008-011>017-020>025-030>033-038>040-044>046-053-054-200600-
...NORTHERN AND CENTRAL MISSOURI...

CITY           SKY/WX    TMP DP  RH WIND       PRES   REMARKS
ST. JOSEPH     NOT AVBL
WHITEMAN AFB   NOT AVBL
CLINTON        NOT AVBL
SEDALIA        NOT AVBL
WARSAW         NOT AVBL
MARSHALL       FAIR      59  52  77 SW5       30.02S
CHILLICOTHE      N/A     56  49  77 SW5       30.00S
MOBERLY        MOCLDY    55  45  67 SW7       30.00S
KIRKSVILLE     NOT AVBL

$$

MOZ041-047>049-056>058-063>065-088>090-097-200600-
...EASTERN AND SOUTHERN MISSOURI...

CITY           SKY/WX    TMP DP  RH WIND       PRES   REMARKS
ST. LOUIS INTL NOT AVBL
MEXICO         FAIR      54  50  87 SW5       30.01S
HANNIBAL       MOCLDY    55  43  62 SW7       29.98S
LEBANON        FAIR      55  48  76 SW5       30.05F

$$

IAZ060-094-KSZ022-034>040-054-083-096-NEZ052-066-093-200600-
...KANSAS...SOUTHEAST NEBRASKA AND IOWA...

CITY           SKY/WX    TMP DP  RH WIND       PRES   REMARKS
TOPEKA         NOT AVBL

$$



USA.gov is the U.S. government's official web portal to all federal, state and local government web resources and services.